Location: Asheville, NC
(35.6000°N, 82.5500°W)
Time: 20:21:02

UWE-3 - Pass Details

Date: 07 January 2018
Orbit: 585 x 685 km, 97.6° (Epoch: 23 March)

Event Time Altitude Azimuth Distance (km) Brightness Sun altitude
Rises 19:06:30 0° 155° (SSE) 2,814 ? -18.6°
Reaches altitude 10° 19:08:40 10° 150° (SSE) 1,927 ? -19.0°
Maximum altitude 19:12:44 51° 74° (ENE) 768 ? -19.8°
Drops below altitude 10° 19:16:55 10° 359° (N) 1,992 ? -20.6°
Sets 19:19:11 0° 355° (N) 2,920 ? -21.1°
